Cheatham Observed Data For Previous 48 Hours

Caption
Day and Hour Reservoir Elevation (behind dam)* Tailwater Elevation (below dam)* Average Hourly Discharge*
12/10/2018 1 AM CST 385.99 364.31 35,100
12/10/2018 2 AM CST 386.08 364.34 34,600
12/10/2018 3 AM CST 386.12 364.36 34,600
12/10/2018 4 AM CST 386.17 364.38 34,200
12/10/2018 5 AM CST 386.20 364.38 34,200
12/10/2018 6 AM CST 386.20 364.38 34,200
12/10/2018 7 AM CST 386.10 364.49 34,200
12/10/2018 8 AM CST 385.99 364.60 41,830
12/10/2018 9 AM CST 385.88 364.88 41,530
12/10/2018 10 AM CST 385.82 365.05 41,930
12/10/2018 11 AM CST 385.76 365.22 41,930
12/10/2018 12 PM CST 385.72 365.38 41,930
12/10/2018 1 PM CST 385.71 365.51 41,330
12/10/2018 2 PM CST 385.70 365.60 41,930
12/10/2018 3 PM CST 385.71 365.67 41,930
12/10/2018 4 PM CST 385.72 365.71 41,930
12/10/2018 5 PM CST 385.73 365.74 41,930
12/10/2018 6 PM CST 385.74 365.76 41,930
12/10/2018 7 PM CST 385.77 365.80 41,330
12/10/2018 8 PM CST 385.77 365.84 41,630
12/10/2018 9 PM CST 385.77 365.86 41,630
12/10/2018 10 PM CST 385.77 365.88 41,930
12/10/2018 11 PM CST 385.78 365.88 41,630
12/11/2018 12 AM CST 385.79 365.88 41,930
12/11/2018 1 AM CST 385.77 365.89 41,100
12/11/2018 2 AM CST 385.75 365.89 41,400
12/11/2018 3 AM CST 385.73 365.89 41,700
12/11/2018 4 AM CST 385.68 365.89 41,400
12/11/2018 5 AM CST 385.64 365.84 41,700
12/11/2018 6 AM CST 385.59 365.89 41,500
12/11/2018 7 AM CST 385.52 365.92 41,500
12/11/2018 8 AM CST 385.40 365.90 41,500
12/11/2018 9 AM CST 385.43 365.83 41,500
12/11/2018 10 AM CST 385.36 365.86 41,500
12/11/2018 11 AM CST 385.34 365.84 41,500
12/11/2018 12 PM CST 385.31 365.81 41,500
12/11/2018 1 PM CST 385.29 365.79 41,500
12/11/2018 2 PM CST 385.27 365.87 41,500
12/11/2018 3 PM CST 385.22 368.82 41,500
12/11/2018 4 PM CST 385.19 365.79 41,500
12/11/2018 5 PM CST 385.21 365.81 41,500
12/11/2018 6 PM CST 385.24 365.84 41,500
12/11/2018 7 PM CST 385.20 365.80 41,500
12/11/2018 8 PM CST 385.15 365.80 41,500
12/11/2018 9 PM CST 385.10 365.80 41,500
12/11/2018 10 PM CST 385.05 365.80 41,500
12/11/2018 11 PM CST 385.05 365.80 41,500
12/12/2018 12 AM CST 385.05 365.85 41,500

Elevations are in feet above sea level. Discharges are in cubic feet per second and are reported at the end of the hour.